#timestamp,LO_Frequency,Hit,StdDev 
1582790415.2,286047001.3,N
1582790435.1,286047001.9,N
1582790436.0,286047001.9,N
1582790455.8,286047004.1,N
1582790475.7,286047003.9,N
1582790495.5,286047003.8,N
1582790515.3,286047002.4,N
1582790535.2,286047001.6,N
1582790555.0,286047001.8,N
1582790555.9,286047001.8,N
1582790575.8,286047002.0,N
1582790595.6,286047001.8,N
1582790615.4,286047004.1,N
1582790635.3,286047003.6,N
1582790655.1,286047002.2,N
1582790675.8,286047002.7,N
1582790695.7,286047002.4,N
1582790715.5,286047000.8,N
1582790735.4,286047000.6,N
1582790755.2,286047002.0,N
1582790775.0,286047002.7,N
1582790775.9,286047002.7,N
1582790795.8,286047000.2,N
1582790815.6,286047000.2,N
1582790835.5,286047000.2,N
1582790855.3,286047001.0,N
1582790875.1,286047002.7,N
1582790895.9,286047000.1,N
1582790915.7,286047001.0,N
1582790935.5,286046998.4,N
1582790955.4,286046997.0,N
1582790975.2,286046999.5,N
1582790995.1,286046997.2,N
1582790996.0,286046997.2,N
1582791015.8,286046996.9,N
1582791035.6,286046997.4,N
1582791055.5,286046997.3,N
1582791075.3,286046997.6,N
1582791095.1,286047001.1,N
1582791115.9,286047000.6,N
1582791135.7,286046998.1,N
1582791155.6,286047000.1,N
1582791175.4,286047000.1,N
1582791195.2,286047000.5,N
1582791215.1,286046998.7,N
1582791216.0,286046998.7,N
1582791235.8,286046998.3,N
1582791255.6,286046999.5,N
1582791275.5,286047001.1,N
1582791295.3,286046998.6,N
1582791315.2,286046998.4,N
1582791335.9,286046999.3,N
1582791355.7,286047001.1,N
1582791375.6,286047000.7,N
1582791395.4,286046998.7,N
1582791415.3,286046998.2,N
1582791435.1,286047002.8,N
1582791436.0,286047002.8,N
1582791455.8,286047002.7,N
1582791475.7,286047000.4,N
1582791495.5,286047000.3,N
1582791515.3,286046998.1,N
1582791535.2,286046998.8,N
1582791555.0,286047000.7,N
1582791555.9,286047000.7,N
1582791575.8,286047002.8,N
1582791595.6,286047002.3,N
1582791615.4,286046998.6,N
1582791635.3,286046998.5,N
1582791655.1,286046998.1,N
1582791675.9,286047002.8,N
1582791695.7,286047000.5,N
1582791715.5,286046998.1,N
1582791735.4,286047002.8,N
1582791755.2,286047002.4,N
1582791775.0,286046999.7,N
1582791775.9,286046999.7,N
1582791795.8,286047002.4,N
1582791815.6,286047004.4,N
1582791835.5,286047002.8,N
1582791855.3,286047000.0,N
1582791875.1,286047002.4,N
1582791895.9,286047000.2,N
1582791915.7,286047001.5,N
1582791935.6,286047002.1,N
1582791955.4,286047002.3,N
1582791975.2,286047001.5,N
1582791995.1,286047003.5,N
1582791996.0,286047003.5,N
1582792015.8,286047001.7,N
1582792035.6,286047002.0,N
1582792055.5,286047002.4,N
1582792075.3,286047002.4,N
1582792095.2,286047000.4,N
1582792115.9,286047000.7,N
1582792135.7,286047000.0,N
1582792155.6,286047000.9,N
1582792175.4,286047000.4,N
1582792195.3,286046999.7,N
1582792215.1,286047000.0,N
1582792216.0,286047000.0,N
1582792235.8,286047001.9,N
1582792255.7,286047001.9,N
1582792275.5,286047002.1,N
1582792295.3,286047001.8,N
1582792315.2,286047001.6,N
1582792335.0,286047003.8,Y
1582792335.9,286047003.8,P
1582792355.8,286047002.2,N
1582792375.6,286047002.0,N
1582792395.4,286047002.0,N
1582792415.3,286047000.5,N
1582792435.1,286046999.9,N
1582792455.8,286047000.9,N
1582792475.7,286047000.7,N
1582792495.5,286046999.4,N
1582792515.4,286046999.6,N
1582792535.2,286046998.7,N
1582792555.0,286046998.4,N
1582792555.9,286046998.4,N
1582792575.8,286046999.4,N
1582792595.6,286046999.4,N
1582792615.5,286046998.7,N
1582792635.3,286046997.4,N
1582792655.1,286046997.1,N
1582792675.9,286046999.4,N
1582792695.7,286046999.5,N
1582792715.5,286046999.0,N
1582792735.4,286046999.5,N
1582792755.2,286046998.7,N
1582792775.1,286046996.7,N
1582792776.0,286046996.7,N
1582792795.8,286046997.2,N
1582792815.6,286046996.5,N
1582792835.5,286046999.3,N
1582792855.3,286046998.6,N
1582792875.1,286046998.7,N
1582792895.9,286047000.2,N
1582792915.7,286047001.6,N
1582792935.6,286047002.1,N
1582792955.4,286047001.9,N
1582792975.2,286047002.2,N
1582792995.1,286047004.0,N
1582792996.0,286047004.0,N
1582793015.8,286047004.4,N
1582793035.7,286047004.4,N
1582793055.5,286047003.6,N
1582793075.3,286047005.7,N
1582793095.2,286047005.6,N
1582793115.0,286047005.1,N
1582793115.9,286047005.1,N
1582793135.7,286047005.4,N
1582793155.6,286047005.4,N
1582793175.4,286047007.6,N
1582793195.3,286047004.9,N
1582793215.1,286047005.5,N
1582793216.0,286047005.5,N
1582793235.8,286047006.0,N
1582793255.7,286047004.2,N
1582793275.5,286047001.7,N
1582793295.4,286047001.6,N
1582793315.2,286047004.2,N
1582793335.0,286047004.7,N
1582793335.9,286047004.7,N
1582793355.8,286047007.2,Y
1582793375.6,286047001.8,P
1582793395.4,286047002.3,N
1582793415.3,286047000.4,N
1582793435.1,286046998.5,N
1582793455.9,286046999.3,N
1582793475.7,286047000.8,N
1582793495.5,286046999.9,N
1582793515.4,286047002.5,N
1582793535.2,286047003.8,N
1582793555.1,286047003.4,N
1582793556.0,286047003.4,N
1582793575.8,286047001.7,N
1582793595.6,286047002.8,N
1582793615.5,286047002.0,N
1582793635.3,286047002.4,N
1582793655.1,286047000.3,N
1582793675.9,286047000.3,N
1582793695.7,286047001.0,N
1582793715.6,286046998.7,N
1582793735.4,286047001.2,N
1582793755.2,286047000.1,N
1582793775.1,286047000.4,N
1582793776.0,286047000.4,N
1582793795.8,286047003.4,N
1582793815.7,286047001.3,N
1582793835.5,286047001.5,N
1582793855.3,286047002.1,N
1582793875.2,286047000.4,N
1582793895.0,286046999.7,N
1582793895.9,286046999.7,N
1582793915.7,286047001.5,N
1582793935.6,286047004.2,N
1582793955.4,286047001.5,N
1582793975.3,286046999.8,N
1582793995.1,286047000.6,N
1582793996.0,286047000.6,N
